Regional Weather Roundup
Issued by NWS

Home | Current Version | Previous Version | Graphics & Text | Print | Product List | Glossary On
Versions: 1 2 3 4 5 6 7 8 9 10 11 12 13 14 15 16 17 18 19 20 21 22 23 24 25 26 27 28 29 30 31 32 33 34 35 36 37 38 39 40 41 42 43 44 45 46 47 48 49 50
000
ASUS45 KSLC 282110
RWRUT

UTAH REGIONAL WEATHER ROUNDUP
NATIONAL WEATHER SERVICE SALT LAKE CITY UT
300 PM MDT THU MAY 28 2015

UTZ001>011-023>025-282200-

NORTHERN UTAH

CITY           SKY/WX    TMP DP  RH WIND       PRES   REMARKS
BRIGHAM CITY   CLOUDY    64  45  49 NE12      30.12R
HILL AFB       PTSUNNY   66  46  48 VRB7      30.11F
LOGAN          PTSUNNY   54  45  71 E14       30.13S
OGDEN          MOSUNNY   67  48  50 W10       30.10F
PROVO AIRPORT  PTSUNNY   70  43  37 NW9       30.10F
SALT LAKE CITY MOSUNNY   69  46  43 NW15      30.08F
VERNAL         PTSUNNY   62  42  47 SE5       30.11F
WENDOVER       MOSUNNY   70  52  52 SE8       30.09F
HEBER CITY     PTSUNNY   66  41  39 SW23      30.12F
WEST JORDAN    MOSUNNY   68  48  49 NW5       30.11F

$$

UTZ012>022-026-027-282200-

SOUTHERN/CENTRAL UTAH

CITY           SKY/WX    TMP DP  RH WIND       PRES   REMARKS
BLANDING       MOSUNNY   75  36  24 S8G16     30.16F
BRYCE CANYON   PTSUNNY   67  32  27 NW12G24   30.22F
CEDAR CITY     MOSUNNY   69  40  34 N15G28    30.11F
DELTA          SUNNY     74  39  28 W9        30.09F
HANKSVILLE     MOSUNNY   81  34  18 W6        30.05S
MILFORD        MOSUNNY   75  42  30 MISG      30.08F
MOAB/CYNLANDS  PTSUNNY   74  35  24 W14G23    30.03S
PRICE          MOSUNNY   65  41  41 CALM      30.12F
ST GEORGE      MOCLDY    90  36  14 W9        29.96F
KANAB          MOSUNNY   82  34  17 W9G18     30.10F

$$

REGIONAL REPORTS     COLORADO/ARIZONA

CITY           SKY/WX    TMP DP  RH WIND       PRES   REMARKS
CRAIG, CO      MOSUNNY   63  39  41 NW13      30.12F
GRAND JUNCTION MOSUNNY   71  39  31 W9        30.03F
RIFLE          PTSUNNY   67  43  41 NW15      30.09R
MONTROSE       MOSUNNY   72  37  28 W9        30.08F
CORTEZ         SUNNY     77  31  18 W20G26    30.09F
PAGE, AZ       MOSUNNY   84  34  16 CALM      30.01F
GRAND CANYON   SUNNY     74  22  14 SW10G23   30.19F
KINGMAN        SUNNY     89  24   9 SW14      30.01F
FLAGSTAFF      SUNNY     72  24  16 SW13G25   30.21F

$$

REGIONAL REPORTS    NEVADA/IDAHO/WYOMING

CITY           SKY/WX    TMP DP  RH WIND       PRES   REMARKS
LAS VEGAS, NV  MOSUNNY   94  31  10 SE12G20   29.86F
ELY            MOSUNNY   71  37  28 SW12      30.15F
ELKO           MOSUNNY   73  40  30 VRB3      30.11F
POCATELLO, ID  PTSUNNY   66  42  41 NW9       30.12F
BURLEY         SUNNY     68  43  40 W10G18    30.10F
EVANSTON, WY   PTSUNNY   51  36  56 NW20G25   30.19R
ROCK SPRINGS   LGT RAIN  46  38  73 NW16      30.20R
KEMMERER       CLOUDY    52  36  54 W22G31    30.21R

$$



USA.gov is the U.S. government's official web portal to all federal, state and local government web resources and services.